This is the latest recevied weather packets stored in our database for station/object LX1CU-13. If no packets are shown the sender has not sent any weather packets the latest 10 day(s).
| Time | Temp. | Humidity | Pressure | Rain* | Wind** | Luminosity | Snow |
|---|---|---|---|---|---|---|---|
| 1777298635 | 27.22° C | 24% | 1016.3 hPa | 0 mm | - | - | - |
| 1777298335 | 28.33° C | 25% | 1016.4 hPa | 0 mm | - | - | - |
| 1777297435 | 28.89° C | 25% | 1016.5 hPa | 0 mm | - | - | - |
| 1777297135 | 28.33° C | 27% | 1016.5 hPa | 0 mm | - | - | - |
| 1777296835 | 27.78° C | 26% | 1016.6 hPa | 0 mm | - | - | - |
| 1777296535 | 27.78° C | 26% | 1016.6 hPa | 0 mm | - | - | - |
| 1777295935 | 26.67° C | 27% | 1016.7 hPa | 0 mm | - | - | - |
| 1777295635 | 26.67° C | 27% | 1016.8 hPa | 0 mm | - | - | - |
| 1777295335 | 27.22° C | 26% | 1016.8 hPa | 0 mm | - | - | - |
| 1777294735 | 27.22° C | 28% | 1016.8 hPa | 0 mm | - | - | - |
| 1777294435 | 26.11° C | 27% | 1016.8 hPa | 0 mm | - | - | - |
| 1777293535 | 25° C | 29% | 1017.1 hPa | 0 mm | - | - | - |
| 1777293235 | 25.56° C | 28% | 1017 hPa | 0 mm | - | - | - |
| 1777292935 | 26.11° C | 28% | 1017.1 hPa | 0 mm | - | - | - |
| 1777292635 | 26.11° C | 29% | 1017.2 hPa | 0 mm | - | - | - |
| 1777292335 | 26.11° C | 29% | 1017.3 hPa | 0 mm | - | - | - |
| 1777292035 | 26.11° C | 29% | 1017.2 hPa | 0 mm | - | - | - |
| 1777291735 | 25.56° C | 29% | 1017.3 hPa | 0 mm | - | - | - |
| 1777291435 | 25.56° C | 29% | 1017.2 hPa | 0 mm | - | - | - |
| 1777291135 | 25.56° C | 28% | 1017.2 hPa | 0 mm | - | - | - |
| 1777290535 | 25.56° C | 30% | 1017.2 hPa | 0 mm | - | - | - |
| 1777289935 | 25.56° C | 28% | 1017.2 hPa | 0 mm | - | - | - |
| 1777289635 | 25.56° C | 28% | 1017.4 hPa | 0 mm | - | - | - |
| 1777289335 | 25.56° C | 30% | 1017.4 hPa | 0 mm | - | - | - |
| 1777289035 | 25.56° C | 30% | 1017.5 hPa | 0 mm | - | - | - |
* Rain latest hour (hover to see other rain measurements)
** Current wind speed in m/s (hover to see current wind gust speed)